Regional Weather Roundup
Issued by NWS

Home | Current Version | Previous Version | Graphics & Text | Print | Product List | Glossary On
Versions: 1 2 3 4 5 6 7 8 9 10 11 12 13 14 15 16 17 18 19 20 21 22 23 24 25 26 27 28
000
ASUS45 KCYS 270310
RWRWY

WYOMING REGIONAL WEATHER ROUNDUP
NATIONAL WEATHER SERVICE CHEYENNE WY
900 PM MDT TUE JUL 26 2016

NOTE:  "FAIR" INDICATES FEW OR NO CLOUDS BELOW 12,000 FEET
WITH NO SIGNIFICANT WEATHER AND/OR OBSTRUCTIONS TO VISIBILITY.

WYZ001-270400-
YELLOWSTONE NATIONAL PARK

CITY           SKY/WX    TMP DP  RH WIND       PRES   REMARKS
LK YELLOWSTONE   N/A     63  36  36 VRB6      30.37S
W YELLOWSTONE  NOT AVBL

$$
WYZ002>013-054>058-071-098>099-270400-
NORTHERN WYOMING

CITY           SKY/WX    TMP DP  RH WIND       PRES   REMARKS
JACKSON        FAIR      75  32  20 NE12G17   30.20R
CODY           FAIR      75  41  29 NW5       30.13S
GREYBULL       FAIR      87  37  17 NW10      30.00R
WORLAND        FAIR      85  39  19 N8        30.00R
SHERIDAN       FAIR      79  50  36 SE5       30.05S
BUFFALO        MOCLDY    73  52  47 N5        30.14R
GILLETTE       MOCLDY    77  55  46 E5        30.11R
HULETT         FAIR      72  55  56 E5        30.09F
NEWCASTLE      FAIR      72  54  53 N10       30.04F

$$
WYZ014>020-022>026-101>103-270400-
CENTRAL WYOMING

CITY           SKY/WX    TMP DP  RH WIND       PRES   REMARKS
BIG PINEY      FAIR      68  36  30 W10       30.23F
PINEDALE       FAIR      72  28  20 W7        30.25R
DUBOIS         MOCLDY    68  34  28 SE14G20   30.27R
LANDER         FAIR      78  36  21 NE10      30.10R
RIVERTON       FAIR      83  31  15 E12G31    30.11R
CASPER         MOCLDY    81  37  20 S9G26     30.13R
DOUGLAS          N/A    N/A N/A N/A MISG      30.08R

$$
WYZ021-027>030-104>119-270400-
SOUTHERN WYOMING

CITY           SKY/WX    TMP DP  RH WIND       PRES   REMARKS
EVANSTON       FAIR      73  17  12 W12       30.25S
KEMMERER         N/A    N/A N/A N/A N8        30.26S
FORT BRIDGER   FAIR      75  18  11 SW8       30.26S
ROCK SPRINGS   FAIR      76  29  17 SW6       30.21S
DIXON          FAIR      74  37  25 S6        30.26S
RAWLINS        FAIR      74  34  23 SW14G24   30.23R
SARATOGA       FAIR      73  30  20 S8        30.26F
LARAMIE        FAIR      70  35  27 W15       30.28R
CHEYENNE       FAIR      73  45  36 NE9G18    30.21R
TORRINGTON     FAIR      76  49  38 SW8       30.01F
PINE BLUFFS    FAIR      72  43  35 NE6       30.16R

$$




USA.gov is the U.S. government's official web portal to all federal, state and local government web resources and services.